Weather History for LTCC - November, 2012

Change the Weather History Date:

Friday, November 9, 2012

  Actual Average Record
Temperature  
Mean Temperature 62 °F -  
Max Temperature 73 °F 57 °F 73 °F (2012)
Min Temperature 50 °F 38 °F 30 °F (2011)
Degree Days  
Heating Degree Days 4    
Growing Degree Days 12 (Base 50)    
Moisture  
Dew Point 50 °F    
Average Humidity 72    
Maximum Humidity 94    
Minimum Humidity 33    
Precipitation  
Precipitation 0.01 in 0.08 in - ()
Sea Level Pressure  
Sea Level Pressure 29.88 in    
Wind  
Wind Speed 3 mph ()    
Max Wind Speed 15 mph    
Max Gust Speed -    
Visibility 6.6 miles    
Events Rain    
Averages and records for this station are not official NWS values.
T = Trace of Precipitation, MM = Missing Value Source: Averaged Metar Reports

Daily Weather History Graph

Daily Weather History Graph

Search for Another Location

Airport or City:

Trip Planner

Search our weather history database for the weather conditions in past years. The results will help you decide how hot, cold, wet, or windy it might be!

Date:

Astronomy

Nov. 09, 2012 Rise Set
Actual Time 5:53 AM EET 4:12 PM EET
Civil Twilight 5:25 AM EET 4:40 PM EET
Nautical Twilight 4:54 AM EET 5:11 PM EET
Astronomical Twilight 4:23 AM EET 5:42 PM EET
Moon 12:34 AM EET (11/9) 1:09 PM EET (11/9)
Length of Visible Light 11h 14m
Length of Day
10h 18m
Waning Crescent, 26% of the Moon is Illuminated
Nov 9
Waning Crescent
Nov 14
New
Nov 20
First Quarter
Nov 28
Full
Dec 6
Last Quarter

Hourly Weather History & Observations

Time (EET) Temp. Dew Point Humidity Pressure Visibility Wind Dir Wind Speed Gust Speed Precip Events Conditions
12:20 AM 51.8 °F 46.4 °F 82% 29.95 in - Calm Calm - N/A   Clear
12:50 AM 53.6 °F 48.2 °F 82% 29.95 in - Calm Calm - N/A   Clear
1:20 AM 51.8 °F 46.4 °F 82% 29.95 in - Calm Calm - N/A   Clear
1:50 AM 51.8 °F 46.4 °F 82% 29.95 in - Calm Calm - N/A   Clear
2:00 AM 52 °F 47 °F 79% 29.89 in 6 mi Calm Calm - -   Clear
2:20 AM 51.8 °F 46.4 °F 82% 29.95 in - Calm Calm - N/A   Clear
2:50 AM 51.8 °F 48.2 °F 88% 29.92 in - Calm Calm - N/A   Clear
3:20 AM 51.8 °F 48.2 °F 88% 29.92 in - Calm Calm - N/A   Clear
3:50 AM 51.8 °F 48.2 °F 88% 29.92 in - NW 4.6 mph - N/A   Clear
4:20 AM 51.8 °F 48.2 °F 88% 29.92 in - ENE 8.1 mph - N/A   Clear
4:50 AM 51.8 °F 48.2 °F 88% 29.92 in - Variable 2.3 mph - N/A   Clear
5:20 AM 51.8 °F 46.4 °F 82% 29.92 in - West 3.5 mph - N/A   Clear
5:50 AM 51.8 °F 46.4 °F 82% 29.92 in 6.2 mi Calm Calm - N/A   Mostly Cloudy
6:20 AM 51.8 °F 46.4 °F 82% 29.95 in 6.2 mi WNW 5.8 mph - N/A   Mostly Cloudy
6:50 AM 53.6 °F 48.2 °F 82% 29.95 in 6.2 mi Calm Calm - N/A   Mostly Cloudy
7:20 AM 55.4 °F 48.2 °F 77% 29.92 in 6.2 mi West 2.3 mph - N/A   Mostly Cloudy
7:50 AM 59.0 °F 48.2 °F 67% 29.92 in 6.2 mi Variable 1.2 mph - N/A   Mostly Cloudy
8:00 AM 59 °F 48 °F 59% 29.90 in 12 mi SSE 1.2 mph - -   Scattered Clouds
8:20 AM 59.0 °F 48.2 °F 67% 29.95 in 6.2 mi SE 3.5 mph - N/A   Mostly Cloudy
8:50 AM 60.8 °F 48.2 °F 63% 29.92 in 6.2 mi SE 4.6 mph - N/A   Mostly Cloudy
9:20 AM 60.8 °F 48.2 °F 63% 29.89 in 6.2 mi East 4.6 mph - N/A   Mostly Cloudy
9:50 AM 64.4 °F 51.8 °F 64% 29.89 in 6.2 mi Variable 1.2 mph - N/A   Mostly Cloudy
10:50 AM 66.2 °F 50.0 °F 56% 29.86 in 6.2 mi SSW 3.5 mph - N/A   Mostly Cloudy
11:20 AM 68.0 °F 50.0 °F 52% 29.86 in 6.2 mi ESE 4.6 mph - N/A   Mostly Cloudy
11:50 AM 69.8 °F 48.2 °F 46% 29.86 in 6.2 mi East 4.6 mph - N/A   Mostly Cloudy
12:20 PM 69.8 °F 51.8 °F 53% 29.86 in 6.2 mi West 6.9 mph - N/A Rain Light Rain Showers
12:50 PM 69.8 °F 48.2 °F 46% 29.86 in 6.2 mi NNW 3.5 mph - N/A Rain Light Rain Showers
1:20 PM 71.6 °F 50.0 °F 46% 29.86 in 6.2 mi Variable 2.3 mph - N/A   Mostly Cloudy
1:50 PM 71.6 °F 50.0 °F 46% 29.83 in 6.2 mi South 5.8 mph - N/A   Mostly Cloudy
2:00 PM 71 °F 48 °F 33% 29.78 in 12 mi South 5.8 mph - -   Partly Cloudy
2:20 PM 71.6 °F 48.2 °F 43% 29.83 in 6.2 mi SSE 12.7 mph - N/A   Mostly Cloudy
2:50 PM 69.8 °F 51.8 °F 53% 29.86 in 6.2 mi South 9.2 mph - N/A Rain Light Rain Showers
3:20 PM 69.8 °F 51.8 °F 53% 29.83 in 6.2 mi SSE 6.9 mph - N/A   Mostly Cloudy
3:50 PM 69.8 °F 50.0 °F 49% 29.86 in 6.2 mi SSW 8.1 mph - N/A Rain Light Rain Showers
4:20 PM 64.4 °F 51.8 °F 64% 29.89 in 6.2 mi WNW 11.5 mph - N/A   Mostly Cloudy
4:50 PM 62.6 °F 51.8 °F 68% 29.86 in 6.2 mi NW 15.0 mph - N/A   Mostly Cloudy
5:20 PM 62.6 °F 53.6 °F 72% 29.89 in 6.2 mi NNW 9.2 mph - N/A   Mostly Cloudy
5:50 PM 60.8 °F 53.6 °F 77% 29.89 in 6.2 mi NNE 5.8 mph - N/A Rain Light Rain Showers
6:20 PM 60.8 °F 53.6 °F 77% 29.89 in 6.2 mi West 5.8 mph - N/A   Mostly Cloudy
6:50 PM 60.8 °F 53.6 °F 77% 29.83 in 6.2 mi North 10.4 mph - N/A   Mostly Cloudy
7:20 PM 60.8 °F 53.6 °F 77% 29.86 in 6.2 mi NE 4.6 mph - N/A   Mostly Cloudy
7:50 PM 60.8 °F 55.4 °F 82% 29.86 in 6.2 mi SSW 4.6 mph - N/A Rain Light Rain Showers
8:00 PM 60 °F 54 °F 76% 29.83 in 9 mi SSW 4.6 mph - - Rain Light Rain Showers
8:20 PM 59.0 °F 55.4 °F 88% 29.86 in 6.2 mi Variable 1.2 mph - N/A   Mostly Cloudy
8:50 PM 59.0 °F 55.4 °F 88% 29.86 in 6.2 mi Variable 1.2 mph - N/A   Mostly Cloudy
9:20 PM 59.0 °F 55.4 °F 88% 29.86 in 6.2 mi SE 2.3 mph - N/A   Mostly Cloudy
9:50 PM 59.0 °F 55.4 °F 88% 29.86 in 6.2 mi Calm Calm - N/A   Mostly Cloudy
10:20 PM 57.2 °F 55.4 °F 94% 29.83 in 6.2 mi Variable 2.3 mph - N/A   Mostly Cloudy
10:50 PM 57.2 °F 53.6 °F 88% 29.83 in 6.2 mi Calm Calm - N/A   Mostly Cloudy
11:20 PM 57.2 °F 53.6 °F 88% 29.86 in 6.2 mi Calm Calm - N/A   Mostly Cloudy
11:50 PM 57.2 °F 53.6 °F 88% 29.83 in 6.2 mi Calm Calm - N/A   Mostly Cloudy